TimeEST,TemperatureF,Dew PointF,Humidity,Sea Level PressureIn,VisibilityMPH,Wind Direction,Wind SpeedMPH,Gust SpeedMPH,PrecipitationIn,Events,Conditions,WindDirDegrees,DateUTC
12:54 AM,37.0,9.0,31,29.98,10.0,NW,11.5,-,N/A,,Clear,310,2013-01-22 05:54:00
1:54 AM,34.0,7.0,32,30.00,10.0,WNW,8.1,-,N/A,,Clear,300,2013-01-22 06:54:00
2:54 AM,33.1,7.0,34,30.01,10.0,NW,13.8,20.7,N/A,,Clear,310,2013-01-22 07:54:00
3:54 AM,30.9,7.0,37,30.03,10.0,NNW,13.8,-,N/A,,Clear,330,2013-01-22 08:54:00
4:54 AM,28.9,8.1,41,30.06,10.0,NNW,9.2,-,N/A,,Clear,340,2013-01-22 09:54:00
5:54 AM,28.0,6.1,39,30.10,10.0,NNW,9.2,-,N/A,,Clear,330,2013-01-22 10:54:00
6:54 AM,26.1,5.0,41,30.14,10.0,North,3.5,-,N/A,,Clear,10,2013-01-22 11:54:00
7:54 AM,26.1,1.0,34,30.16,10.0,NNW,8.1,-,N/A,,Clear,340,2013-01-22 12:54:00
8:54 AM,27.0,-2.9,27,30.19,10.0,NNW,10.4,19.6,N/A,,Clear,340,2013-01-22 13:54:00
9:54 AM,28.0,-4.0,25,30.21,10.0,North,9.2,-,N/A,,Clear,350,2013-01-22 14:54:00
10:54 AM,30.9,-5.1,21,30.22,10.0,NW,12.7,-,N/A,,Clear,310,2013-01-22 15:54:00
11:54 AM,32.0,-7.1,18,30.21,10.0,NW,15.0,23.0,N/A,,Clear,310,2013-01-22 16:54:00
12:54 PM,34.0,-5.1,19,30.18,10.0,WNW,11.5,20.7,N/A,,Clear,290,2013-01-22 17:54:00
1:54 PM,35.1,-4.0,19,30.16,10.0,NW,10.4,19.6,N/A,,Clear,320,2013-01-22 18:54:00
2:54 PM,36.0,-5.1,17,30.16,10.0,West,13.8,20.7,N/A,,Clear,280,2013-01-22 19:54:00
3:54 PM,36.0,-7.1,16,30.17,10.0,WSW,13.8,-,N/A,,Clear,250,2013-01-22 20:54:00
4:54 PM,35.1,-6.0,17,30.18,10.0,WNW,8.1,-,N/A,,Clear,300,2013-01-22 21:54:00
5:54 PM,32.0,-2.9,22,30.20,10.0,NW,6.9,-,N/A,,Clear,310,2013-01-22 22:54:00
6:54 PM,30.0,-2.9,24,30.22,10.0,Calm,Calm,-,N/A,,Clear,0,2013-01-22 23:54:00
7:54 PM,28.9,-2.9,25,30.22,10.0,Calm,Calm,-,N/A,,Clear,0,2013-01-23 00:54:00
8:54 PM,28.0,-2.0,27,30.22,10.0,North,3.5,-,N/A,,Scattered Clouds,360,2013-01-23 01:54:00
9:54 PM,27.0,1.0,33,30.25,10.0,NNW,5.8,-,N/A,,Partly Cloudy,340,2013-01-23 02:54:00
10:54 PM,26.1,-0.9,31,30.25,10.0,NW,3.5,-,N/A,,Partly Cloudy,310,2013-01-23 03:54:00
11:54 PM,24.1,-0.0,35,30.26,10.0,Calm,Calm,-,N/A,,Clear,0,2013-01-23 04:54:00